Location: Brompton
(51.4000°N, 0.5333°E)
Time: 02:45:46
(UTC+00:00)

Cosmos 1271 Rocket - Pass Details

Date: 11 May 2021
Orbit: 497 x 545 km, 81.2° (Epoch: 13 June)

Event Time Altitude Azimuth Distance (km) Brightness Sun altitude
Exits shadow 21:54:47 18° 200° (SSW) 1,395 4.5 -15.7°
Maximum altitude 21:57:43 73° 283° (WNW) 578 3.0 -16.0°
Drops below altitude 10° 22:01:45 10° 9° (N) 1,826 6.3 -16.3°
Sets 22:03:56 0° 12° (NNE) 2,722 7.2 -16.4°
